[[{"header":{"parameterUnit":"m.s-1","parameterCategory":1,"la1":30.2991,"la2":30.254,"lo1":-89.0895,"lo2":-89.0444,"dy":0.0017,"dx":0.0017,"nx":28,"ny":28,"refTime":"2025-08-20T03:00:00:Z","depth":0,"parameterNumber":2,"parameterNumberName":"U-component_of_WINDS"},"data":[0,0,0,0,0,0,0,0,0,0,0,0,0,0,0,0,0,0,0,0,0,0,0,0,0,0,0,0,0,0,0,0,0,0,0,0,0,0,0,0,0,0,0,0,0,0,0,0,0,0,0,0,0,0,0,0,0,0,1.5156,1.5157,0,1.5162,1.5162,1.5162,1.514,1.514,1.5139,1.5138,1.5144,1.5144,1.5145,0,0,0,0,0,0,0,0,0,0,0,0,0,1.5126,1.5127,1.5156,1.5157,1.5157,1.5162,1.5162,1.5162,1.514,1.514,1.5139,1.5138,1.5143,1.5144,1.5145,0,0,0,0,0,0,0,0,0,0,0,0,0,1.5136,1.5127,1.5156,1.5146,1.5146,1.5162,1.5162,1.5162,1.5141,1.514,1.5139,1.5138,1.5143,1.5144,1.5145,1.5171,0,0,1.5149,1.5149,0,0,0,0,0,0,0,0,1.5136,1.5138,1.5148,1.5147,1.5146,1.5149,1.5153,1.5165,1.5141,1.5142,1.5138,1.5137,1.5146,1.5147,1.515,1.5172,1.5172,1.5149,1.5149,1.515,1.515,0,0,0,0,0,0,0,1.5135,1.5137,1.5159,1.5148,1.5147,1.5141,1.5142,1.5155,1.515,1.5142,1.5141,1.5142,1.5146,1.5149,1.515,1.5172,1.5149,1.515,1.515,1.5151,1.5213,1.5214,0,0,0,0,0,0,1.5136,1.5137,1.5158,1.5159,1.5139,1.5143,1.5143,1.5149,1.515,1.5149,1.5142,1.5141,1.5148,1.5149,1.515,1.5179,1.515,1.5151,1.5152,1.5212,1.5214,1.5215,0,0,0,0,0,0,1.5135,1.5138,1.5158,1.5147,1.5149,1.5144,1.5151,1.515,1.5153,1.515,1.5148,1.5147,1.5147,1.5149,1.5166,1.5179,1.5151,1.5152,1.5211,1.5213,1.5214,1.5238,0,0,0,0,0,0,1.5135,1.5138,1.5148,1.5148,1.515,1.5174,1.5152,1.5151,1.5155,1.5153,1.5154,1.5153,1.5146,1.5164,1.5167,1.518,1.5153,1.521,1.5212,1.5214,1.5236,1.5241,1.5244,0,0,0,0,0,1.5134,1.5155,1.5149,1.5151,1.5163,1.5175,1.5176,1.5168,1.5157,1.5166,1.5164,1.5153,1.5178,1.5166,1.5169,1.5183,1.5209,1.5211,1.5213,1.5235,1.524,1.5244,0,0,0,0,0,0,1.5157,1.5155,1.5148,1.517,1.5173,1.5171,1.5183,1.5174,1.5181,1.5178,1.5168,1.5169,1.5187,1.5187,1.5174,1.5207,1.5191,1.5194,1.5206,1.5211,1.5215,1.5214,1.5154,0,0,0,0,0,1.5165,1.5175,1.5173,1.5192,1.5194,1.5189,1.5194,1.5187,1.519,1.5191,1.519,1.5192,1.5201,1.5206,1.5214,1.5237,1.5236,1.5248,1.5252,1.5255,1.5257,1.5267,1.5272,1.5222,1.5222,1.5222,0,0,1.5181,1.5181,1.5188,1.5197,1.5198,1.5209,1.519,1.5202,1.5209,1.5193,1.5208,1.5208,1.521,1.523,1.5238,1.523,1.5271,1.5258,1.526,1.526,1.527,1.5275,1.5279,1.5223,1.5223,1.5223,0,0,1.5215,1.5217,1.5232,1.5234,1.5237,1.5233,1.5237,1.5236,1.5235,1.5251,1.5238,1.5247,1.5262,1.5264,1.5266,1.5301,1.529,1.5304,1.5323,1.5334,1.5337,1.5341,1.5351,1.5355,1.5306,1.5306,1.5306,0,1.5235,1.525,1.5242,1.5254,1.5258,1.5244,1.5259,1.5261,1.5266,1.5269,1.526,1.5277,1.5278,1.5297,1.5305,1.5309,1.5312,1.5303,1.5338,1.5341,1.5344,1.5354,1.5358,1.5308,1.5307,1.5307,1.5307,0,1.5272,1.5283,1.5296,1.53,1.5305,1.5319,1.5313,1.5319,1.5313,1.5309,1.5325,1.5326,1.5332,1.5337,1.5331,1.5355,1.5349,1.5339,1.5322,1.535,1.5359,1.5363,1.531,1.5309,1.5309,1.5308,0,0,1.5321,1.532,1.5325,1.5326,1.5327,1.5335,1.5348,1.5355,1.5359,1.5364,1.5373,1.5386,1.5376,1.538,1.5374,1.5383,1.5408,1.5372,1.5372,1.5377,1.5433,1.5439,1.5443,1.5402,1.5403,1.5403,1.5432,0,1.5352,1.5374,1.5367,1.5389,1.5397,1.5384,1.5395,1.5397,1.5395,1.5402,1.5399,1.5408,1.5395,1.5397,1.5406,1.5403,1.5419,1.5401,1.541,1.541,1.5407,1.5448,1.5455,1.5482,1.5435,1.5436,1.5436,0,1.5392,1.5397,1.5419,1.5418,1.5421,1.5431,1.5436,1.5443,1.5445,1.5443,1.5446,1.5438,1.545,1.5435,1.545,1.5439,1.5442,1.5441,1.5442,1.5441,1.5423,1.5446,1.549,1.5493,1.5442,1.5442,1.5441,0,1.5422,1.5435,1.5449,1.5451,1.545,1.5457,1.5458,1.5458,1.5462,1.5467,1.5469,1.5475,1.5478,1.5482,1.5476,1.5465,1.5492,1.5476,1.5489,1.5489,1.5493,1.5493,1.5536,1.5499,1.5499,1.5499,1.5499,0,1.5457,1.5471,1.5462,1.5471,1.5486,1.5478,1.5493,1.5491,1.5492,1.55,1.549,1.5497,1.5489,1.5496,1.5491,1.5504,1.5506,1.5504,1.5502,1.5503,1.5503,1.5504,1.5501,1.55,1.55,1.55,1.5499,0,1.5493,1.5488,1.5502,1.5501,1.55,1.5511,1.5509,1.5517,1.5514,1.5524,1.5526,1.5521,1.5529,1.5523,1.5531,1.5527,1.5544,1.554,1.5543,1.5541,1.5553,1.5551,1.5597,1.5602,1.5563,1.5564,1.5564,0,1.5514,1.5524,1.5524,1.5528,1.5528,1.5536,1.554,1.5532,1.5537,1.5539,1.5546,1.5553,1.5557,1.5569,1.5566,1.5572,1.5567,1.5583,1.5568,1.5569,1.5565,1.5564,1.5564,1.5585,1.5586,1.5586,1.5586,0,1.5553,1.5549,1.5555,1.556,1.5564,1.5568,1.557,1.5575,1.5567,1.5572,1.5579,1.5583,1.559,1.5596,1.5601,1.56,1.5592,1.5591,1.5594,1.5595,1.5595,1.5593,1.5549,1.559,1.559,1.5589,1.5589,1.5589,1.558,1.5588,1.5588,1.5595,1.5596,1.5598,1.5605,1.5603,1.5608,1.5613,1.5609,1.5617,1.5618,1.5623,1.5624,1.563,1.5623,1.5628,1.5629,1.5629,1.563,1.5596,1.5631,1.5631,1.5631,1.563,1.563,0,1.5616,1.5616,1.5622,1.5625,1.563,1.5622,1.5624,1.5629,1.5636,1.5637,1.5642,1.565,1.5655,1.5653,1.5658,1.5663,1.5659,1.5664,1.5663,1.5663,1.5637,1.5633,1.5667,1.5667,1.5667,1.5667,1.5667,1.5667,1.5636,1.5648,1.5644,1.5657,1.5656,1.5664,1.5665,1.5667,1.5668,1.5677,1.5682,1.568,1.568,1.5684,1.5689,1.5688,1.569,1.5696,1.5693,1.5669,1.5665,1.5661,1.5657,1.5697,1.5697,1.5719,1.5719,1.5719]},{"header":{"parameterUnit":"m.s-1","parameterCategory":1,"la1":30.2991,"la2":30.254,"lo1":-89.0895,"lo2":-89.0444,"dy":0.0017,"dx":0.0017,"nx":28,"ny":28,"refTime":"2025-08-20T03:00:00:Z","depth":0,"parameterNumber":3,"parameterNumberName":"V-component_of_WINDS"},"data":[0,0,0,0,0,0,0,0,0,0,0,0,0,0,0,0,0,0,0,0,0,0,0,0,0,0,0,0,0,0,0,0,0,0,0,0,0,0,0,0,0,0,0,0,0,0,0,0,0,0,0,0,0,0,0,0,0,0,0.9477,0.9477,0,0.9474,0.9474,0.9474,0.9505,0.9506,0.9507,0.9508,0.9499,0.9498,0.9497,0,0,0,0,0,0,0,0,0,0,0,0,0,0.9505,0.9504,0.9477,0.9477,0.9477,0.9474,0.9474,0.9474,0.9505,0.9506,0.9507,0.9508,0.95,0.9498,0.9497,0,0,0,0,0,0,0,0,0,0,0,0,0,0.9496,0.9504,0.9477,0.9492,0.9493,0.9474,0.9474,0.9474,0.9505,0.9506,0.9507,0.9508,0.95,0.9499,0.9497,0.9462,0,0,0.9492,0.9492,0,0,0,0,0,0,0,0,0.9497,0.9495,0.949,0.9491,0.9492,0.9491,0.9481,0.947,0.9504,0.95,0.9508,0.9509,0.9495,0.9494,0.9491,0.9461,0.9461,0.9492,0.9491,0.9491,0.949,0,0,0,0,0,0,0,0.9497,0.9495,0.9476,0.949,0.9491,0.9498,0.9498,0.9479,0.949,0.9501,0.9503,0.9502,0.9496,0.9492,0.9491,0.9461,0.9492,0.9491,0.949,0.9489,0.9401,0.94,0,0,0,0,0,0,0.9496,0.9496,0.9476,0.9476,0.9498,0.9496,0.9496,0.949,0.9491,0.9492,0.9501,0.9504,0.9494,0.9492,0.949,0.9448,0.9491,0.9489,0.9488,0.9403,0.9401,0.9399,0,0,0,0,0,0,0.9497,0.9494,0.9476,0.9486,0.9485,0.9494,0.9487,0.949,0.9486,0.9491,0.9493,0.9495,0.9495,0.9493,0.9469,0.9448,0.9488,0.9487,0.9404,0.9402,0.94,0.9363,0,0,0,0,0,0,0.9498,0.9494,0.9482,0.9486,0.9484,0.9455,0.9486,0.9489,0.9483,0.9487,0.9486,0.9487,0.9496,0.9471,0.9467,0.9447,0.9486,0.9406,0.9403,0.9401,0.9366,0.936,0.9355,0,0,0,0,0,0.9498,0.9471,0.9481,0.9478,0.9469,0.9454,0.9453,0.9465,0.9482,0.9468,0.9472,0.9487,0.9452,0.9468,0.9464,0.9443,0.9407,0.9404,0.9401,0.9369,0.9362,0.9355,0,0,0,0,0,0,0.9462,0.9471,0.9483,0.9456,0.9454,0.9459,0.9443,0.9457,0.9449,0.9452,0.9466,0.9466,0.9439,0.9439,0.9457,0.9409,0.9432,0.9428,0.9409,0.9402,0.9397,0.9396,0.9485,0,0,0,0,0,0.9451,0.944,0.9448,0.9423,0.9422,0.9433,0.9427,0.9437,0.9435,0.9434,0.9436,0.9432,0.942,0.9411,0.9401,0.9368,0.9367,0.9351,0.9345,0.9341,0.9336,0.9318,0.931,0.9389,0.9389,0.9389,0,0,0.9427,0.9431,0.9423,0.9416,0.9416,0.9403,0.9432,0.9417,0.9406,0.9431,0.9408,0.941,0.9406,0.9378,0.9365,0.9377,0.9315,0.9337,0.9333,0.9331,0.9314,0.9306,0.9299,0.9387,0.9387,0.9388,0,0,0.9377,0.938,0.936,0.9359,0.936,0.9367,0.9362,0.9366,0.9368,0.9347,0.9365,0.9352,0.9332,0.9328,0.9324,0.9274,0.9287,0.927,0.9239,0.9221,0.9215,0.9209,0.919,0.9183,0.9266,0.9266,0.9266,0,0.9348,0.933,0.9347,0.933,0.9326,0.9351,0.9329,0.9327,0.9323,0.9319,0.9333,0.9308,0.9307,0.9278,0.9266,0.9262,0.9255,0.9269,0.9215,0.921,0.9205,0.9186,0.9179,0.9264,0.9264,0.9265,0.9265,0,0.9292,0.928,0.9263,0.926,0.9255,0.9235,0.9248,0.924,0.9251,0.9257,0.9234,0.9235,0.9224,0.9218,0.9228,0.919,0.9197,0.9213,0.9236,0.9195,0.9177,0.9171,0.9261,0.9262,0.9262,0.9263,0,0,0.9217,0.9225,0.9219,0.9218,0.922,0.921,0.9192,0.9184,0.9176,0.9173,0.9157,0.914,0.9155,0.915,0.9159,0.9144,0.9103,0.9161,0.9161,0.9149,0.9059,0.9045,0.9037,0.9112,0.9111,0.911,0.9058,0,0.9167,0.9138,0.9153,0.9121,0.9109,0.9132,0.9117,0.9116,0.9121,0.911,0.9115,0.9102,0.9124,0.9121,0.9107,0.9111,0.9084,0.9115,0.9095,0.9094,0.9093,0.9028,0.9013,0.8964,0.9052,0.9051,0.905,0,0.9104,0.91,0.9067,0.9073,0.9068,0.9054,0.9047,0.9038,0.9037,0.9042,0.9037,0.9051,0.9032,0.9058,0.9031,0.9051,0.9044,0.9045,0.9044,0.904,0.9068,0.9021,0.8949,0.8941,0.904,0.9041,0.9042,0,0.905,0.9036,0.9015,0.9014,0.902,0.9009,0.9011,0.9012,0.9006,0.9,0.8996,0.8988,0.8982,0.8975,0.8985,0.9004,0.8957,0.8983,0.8958,0.8958,0.8945,0.8945,0.8869,0.8944,0.8944,0.8945,0.8945,0,0.8991,0.8969,0.8991,0.8977,0.8954,0.8971,0.8947,0.8951,0.8952,0.8939,0.8959,0.8946,0.8962,0.8949,0.8958,0.8933,0.8931,0.8933,0.8935,0.893,0.8929,0.8923,0.8926,0.8943,0.8943,0.8943,0.8944,0,0.8925,0.8939,0.8917,0.8925,0.8927,0.8909,0.8915,0.8902,0.891,0.8893,0.889,0.8901,0.8888,0.8899,0.8885,0.8891,0.8858,0.8866,0.8858,0.8859,0.8833,0.8834,0.8748,0.8737,0.8822,0.8821,0.8821,0,0.8885,0.887,0.8877,0.8871,0.8872,0.8861,0.8855,0.8873,0.8866,0.8865,0.8851,0.8841,0.8833,0.881,0.8816,0.8805,0.8812,0.8783,0.881,0.8805,0.8809,0.8809,0.8806,0.8776,0.8775,0.8774,0.8773,0,0.8813,0.8821,0.8813,0.8808,0.8802,0.8798,0.8796,0.8789,0.8807,0.8798,0.8786,0.878,0.8768,0.8756,0.8748,0.8748,0.8762,0.8765,0.8759,0.8752,0.8747,0.8747,0.884,0.8766,0.8767,0.8768,0.8768,0.8768,0.8757,0.8744,0.8748,0.8738,0.8739,0.8737,0.8725,0.8733,0.8723,0.8715,0.8726,0.8711,0.8711,0.8702,0.87,0.8687,0.8699,0.869,0.8687,0.8684,0.8679,0.8752,0.8686,0.8686,0.8687,0.8687,0.8687,0,0.8684,0.8688,0.868,0.8677,0.8669,0.8688,0.8686,0.8678,0.8665,0.8665,0.8657,0.8643,0.8632,0.8637,0.8627,0.8616,0.8622,0.8612,0.8612,0.8611,0.867,0.8676,0.8607,0.8607,0.8607,0.8607,0.8607,0.8607,0.8644,0.8623,0.8632,0.861,0.8614,0.8601,0.8598,0.8596,0.8596,0.8579,0.8571,0.8576,0.8578,0.8568,0.8559,0.8561,0.8555,0.8542,0.8546,0.86,0.8607,0.8615,0.862,0.8541,0.8541,0.8488,0.8488,0.8487]}]]